| time (UTC) | temp F | wind direction | speed MPH | gust MPH | rain 1hr in | rain 24hr in | rain mn in | humidity % | barometer mb |
| 20260905223002 | 82 | 27 | 1.0 | 3.0 | 0.00 | 0.00 | 0.00 | 61 | 1010.5 |
| 20260905222502 | 82 | 6 | 1.0 | 4.0 | 0.00 | 0.00 | 0.00 | 60 | 1010.6 |
| 20260905222025 | 82 | 5 | 2.0 | 4.0 | 0.00 | 0.00 | 0.00 | 60 | 1010.6 |
| 20260905221524 | 82 | 37 | 1.0 | 2.0 | 0.00 | 0.00 | 0.00 | 59 | 1010.7 |
| 20260905221003 | 82 | 37 | 0.0 | 2.0 | 0.00 | 0.00 | 0.00 | 60 | 1010.6 |
| 20260905220503 | 82 | 37 | 1.0 | 2.0 | 0.00 | 0.00 | 0.00 | 60 | 1010.7 |
| 20260905220004 | 82 | 37 | 1.0 | 4.0 | 0.00 | 0.00 | 0.00 | 61 | 1010.7 |
| 20260905215503 | 83 | 124 | 1.0 | 5.0 | 0.00 | 0.00 | 0.00 | 61 | 1010.8 |
| 20260905215025 | 83 | 225 | 2.0 | 5.0 | 0.00 | 0.00 | 0.00 | 62 | 1010.9 |
| 20260905214504 | 82 | 240 | 2.0 | 4.0 | 0.00 | 0.00 | 0.00 | 62 | 1010.8 |
| 20260905214002 | 83 | 213 | 2.0 | 3.0 | 0.00 | 0.00 | 0.00 | 63 | 1011.0 |
| 20260905213503 | 82 | 220 | 2.0 | 4.0 | 0.00 | 0.00 | 0.00 | 65 | 1010.9 |
| 20260905213002 | 82 | 237 | 2.0 | 4.0 | 0.00 | 0.00 | 0.00 | 63 | 1011.0 |
| 20260905212503 | 81 | 35 | 2.0 | 3.0 | 0.00 | 0.00 | 0.00 | 67 | 1011.0 |
| 20260905212024 | 81 | 116 | 2.0 | 3.0 | 0.00 | 0.00 | 0.00 | 69 | 1011.2 |
| 20260905211503 | 81 | 168 | 1.0 | 2.0 | 0.00 | 0.00 | 0.00 | 70 | 1011.4 |
| 20260905211002 | 81 | 168 | 1.0 | 3.0 | 0.00 | 0.00 | 0.00 | 71 | 1011.7 |
| 20260905210525 | 80 | 163 | 2.0 | 3.0 | 0.00 | 0.00 | 0.00 | 71 | 1011.6 |
| 20260905210003 | 80 | 330 | 2.0 | 3.0 | 0.00 | 0.00 | 0.00 | 69 | 1011.7 |
| 20260905205503 | 80 | 356 | 0.0 | 4.0 | 0.00 | 0.00 | 0.00 | 70 | 1011.7 |
| 20260905205003 | 80 | 165 | 1.0 | 10.0 | 0.00 | 0.00 | 0.00 | 71 | 1011.6 |
| 20260905204503 | 80 | 314 | 4.0 | 10.0 | 0.00 | 0.00 | 0.00 | 72 | 1011.4 |
| 20260905204003 | 80 | 210 | 1.0 | 9.0 | 0.00 | 0.00 | 0.00 | 72 | 1011.6 |
| 20260905203502 | 81 | 212 | 3.0 | 9.0 | 0.00 | 0.00 | 0.00 | 71 | 1011.9 |
| 20260905203003 | 81 | 203 | 3.0 | 7.0 | 0.00 | 0.00 | 0.00 | 71 | 1011.5 |
| 20260905202503 | 82 | 213 | 3.0 | 7.0 | 0.00 | 0.00 | 0.00 | 69 | 1011.4 |
| 20260905202003 | 83 | 222 | 1.0 | 7.0 | 0.00 | 0.00 | 0.00 | 67 | 1011.2 |
| 20260905201502 | 83 | 208 | 3.0 | 7.0 | 0.00 | 0.00 | 0.00 | 64 | 1011.2 |
| 20260905201004 | 83 | 336 | 2.0 | 13.0 | 0.00 | 0.00 | 0.00 | 63 | 1011.3 |
| 20260905200523 | 84 | 350 | 4.0 | 13.0 | 0.00 | 0.00 | 0.00 | 62 | 1011.3 |
| 20260905200003 | 84 | 36 | 3.0 | 12.0 | 0.00 | 0.00 | 0.00 | 62 | 1011.7 |
| 20260905195503 | 84 | 13 | 6.0 | 14.0 | 0.00 | 0.00 | 0.00 | 60 | 1011.9 |
| 20260905195004 | 84 | 22 | 6.0 | 16.0 | 0.00 | 0.00 | 0.00 | 59 | 1012.2 |
| 20260905194503 | 85 | 23 | 9.0 | 16.0 | 0.00 | 0.00 | 0.00 | 57 | 1012.1 |
| 20260905194003 | 86 | 360 | 3.0 | 7.0 | 0.00 | 0.00 | 0.00 | 61 | 1011.6 |
| 20260905193523 | 87 | 223 | 2.0 | 4.0 | 0.00 | 0.00 | 0.00 | 61 | 1011.2 |
| 20260905193003 | 88 | 293 | 1.0 | 7.0 | 0.00 | 0.00 | 0.00 | 58 | 1010.6 |
| 20260905192504 | 90 | 332 | 3.0 | 7.0 | 0.00 | 0.00 | 0.00 | 57 | 1010.5 |
| 20260905192003 | 91 | 359 | 2.0 | 8.0 | 0.00 | 0.00 | 0.00 | 52 | 1010.6 |
| 20260905191504 | 92 | 217 | 2.0 | 8.0 | 0.00 | 0.00 | 0.00 | 49 | 1010.5 |
| 20260905191024 | 93 | 191 | 1.0 | 5.0 | 0.00 | 0.00 | 0.00 | 45 | 1010.5 |
| 20260905190502 | 94 | 253 | 2.0 | 8.0 | 0.00 | 0.00 | 0.00 | 45 | 1010.3 |
| 20260905190004 | 94 | 1 | 2.0 | 11.0 | 0.00 | 0.00 | 0.00 | 45 | 1010.2 |
| 20260905185503 | 95 | 18 | 7.0 | 11.0 | 0.00 | 0.00 | 0.00 | 44 | 1010.6 |
| 20260905185025 | 95 | 11 | 5.0 | 10.0 | 0.00 | 0.00 | 0.00 | 44 | 1010.7 |
| 20260905184503 | 95 | 335 | 2.0 | 11.0 | 0.00 | 0.00 | 0.00 | 44 | 1011.0 |
| 20260905184004 | 96 | 320 | 3.0 | 11.0 | 0.00 | 0.00 | 0.00 | 43 | 1011.0 |
| 20260905183504 | 96 | 347 | 3.0 | 10.0 | 0.00 | 0.00 | 0.00 | 42 | 1010.8 |
| 20260905183003 | 96 | 205 | 3.0 | 10.0 | 0.00 | 0.00 | 0.00 | 43 | 1010.9 |
| 20260905182503 | 95 | 148 | 1.0 | 7.0 | 0.00 | 0.00 | 0.00 | 44 | 1011.3 |
| 20260905182003 | 95 | 344 | 2.0 | 7.0 | 0.00 | 0.00 | 0.00 | 44 | 1011.2 |
| 20260905181523 | 96 | 360 | 3.0 | 11.0 | 0.00 | 0.00 | 0.00 | 42 | 1011.3 |
| 20260905181003 | 97 | 312 | 3.0 | 11.0 | 0.00 | 0.00 | 0.00 | 44 | 1011.4 |
| 20260905180503 | 97 | 249 | 2.0 | 7.0 | 0.00 | 0.00 | 0.00 | 44 | 1011.4 |
| 20260905180004 | 96 | 307 | 1.0 | 12.0 | 0.00 | 0.00 | 0.00 | 45 | 1011.5 |
| 20260905175503 | 96 | 229 | 2.0 | 12.0 | 0.00 | 0.00 | 0.00 | 44 | 1011.8 |
| 20260905175003 | 95 | 259 | 3.0 | 7.0 | 0.00 | 0.00 | 0.00 | 43 | 1011.9 |
| 20260905174525 | 96 | 8 | 2.0 | 6.0 | 0.00 | 0.00 | 0.00 | 45 | 1011.9 |
| 20260905174003 | 96 | 216 | 2.0 | 6.0 | 0.00 | 0.00 | 0.00 | 44 | 1012.0 |
| 20260905173524 | 95 | 353 | 2.0 | 7.0 | 0.00 | 0.00 | 0.00 | 44 | 1012.1 |
| 20260905173004 | 95 | 346 | 2.0 | 9.0 | 0.00 | 0.00 | 0.00 | 45 | 1012.3 |
| 20260905172503 | 96 | 27 | 6.0 | 9.0 | 0.00 | 0.00 | 0.00 | 44 | 1012.4 |
| 20260905172004 | 95 | 30 | 2.0 | 9.0 | 0.00 | 0.00 | 0.00 | 48 | 1012.4 |
| 20260905171504 | 95 | 14 | 6.0 | 9.0 | 0.00 | 0.00 | 0.00 | 48 | 1012.6 |
| 20260905171004 | 94 | 17 | 1.0 | 7.0 | 0.00 | 0.00 | 0.00 | 49 | 1012.7 |
| 20260905170504 | 94 | 181 | 2.0 | 8.0 | 0.00 | 0.00 | 0.00 | 49 | 1012.7 |
| 20260905170003 | 94 | 184 | 3.0 | 8.0 | 0.00 | 0.00 | 0.00 | 49 | 1012.7 |
| 20260905165503 | 95 | 193 | 5.0 | 7.0 | 0.00 | 0.00 | 0.00 | 47 | 1012.8 |
| 20260905165003 | 96 | 205 | 5.0 | 7.0 | 0.00 | 0.00 | 0.00 | 48 | 1012.9 |
| 20260905164503 | 95 | 230 | 2.0 | 7.0 | 0.00 | 0.00 | 0.00 | 47 | 1013.1 |
| 20260905164003 | 96 | 7 | 4.0 | 7.0 | 0.00 | 0.00 | 0.00 | 48 | 1013.1 |
| 20260905163524 | 96 | 219 | 1.0 | 4.0 | 0.00 | 0.00 | 0.00 | 51 | 1013.1 |
| 20260905163004 | 95 | 189 | 2.0 | 7.0 | 0.00 | 0.00 | 0.00 | 50 | 1013.2 |
| 20260905162503 | 94 | 127 | 2.0 | 7.0 | 0.00 | 0.00 | 0.00 | 50 | 1013.3 |
| 20260905162025 | 94 | 26 | 2.0 | 5.0 | 0.00 | 0.00 | 0.00 | 55 | 1013.3 |
| 20260905161503 | 94 | 249 | 2.0 | 6.0 | 0.00 | 0.00 | 0.00 | 53 | 1013.3 |
| 20260905161003 | 93 | 208 | 2.0 | 6.0 | 0.00 | 0.00 | 0.00 | 53 | 1013.5 |
| 20260905160503 | 93 | 197 | 4.0 | 7.0 | 0.00 | 0.00 | 0.00 | 56 | 1013.5 |
| 20260905160004 | 93 | 230 | 3.0 | 7.0 | 0.00 | 0.00 | 0.00 | 55 | 1013.4 |
| 20260905155524 | 92 | 179 | 3.0 | 7.0 | 0.00 | 0.00 | 0.00 | 58 | 1013.5 |
| 20260905155003 | 92 | 199 | 4.0 | 6.0 | 0.00 | 0.00 | 0.00 | 57 | 1013.6 |
| 20260905154525 | 91 | 214 | 2.0 | 6.0 | 0.00 | 0.00 | 0.00 | 58 | 1013.6 |
| 20260905154003 | 92 | 201 | 3.0 | 6.0 | 0.00 | 0.00 | 0.00 | 58 | 1013.5 |
| 20260905153504 | 92 | 222 | 2.0 | 5.0 | 0.00 | 0.00 | 0.00 | 60 | 1013.5 |
| 20260905153003 | 91 | 203 | 3.0 | 6.0 | 0.00 | 0.00 | 0.00 | 58 | 1013.5 |
| 20260905152503 | 91 | 214 | 2.0 | 6.0 | 0.00 | 0.00 | 0.00 | 61 | 1013.6 |
| 20260905152003 | 90 | 168 | 2.0 | 6.0 | 0.00 | 0.00 | 0.00 | 62 | 1013.6 |
| 20260905151503 | 90 | 255 | 2.0 | 6.0 | 0.00 | 0.00 | 0.00 | 61 | 1013.6 |
| 20260905151003 | 90 | 246 | 2.0 | 6.0 | 0.00 | 0.00 | 0.00 | 61 | 1013.5 |
| 20260905150504 | 90 | 218 | 2.0 | 7.0 | 0.00 | 0.00 | 0.00 | 61 | 1013.6 |
| 20260905150004 | 90 | 206 | 3.0 | 7.0 | 0.00 | 0.00 | 0.00 | 63 | 1013.5 |
| 20260905145524 | 89 | 221 | 1.0 | 6.0 | 0.00 | 0.00 | 0.00 | 64 | 1013.5 |
| 20260905145024 | 89 | 216 | 3.0 | 6.0 | 0.00 | 0.00 | 0.00 | 63 | 1013.6 |
| 20260905144504 | 88 | 236 | 2.0 | 5.0 | 0.00 | 0.00 | 0.00 | 63 | 1013.6 |
| 20260905144025 | 88 | 198 | 2.0 | 5.0 | 0.00 | 0.00 | 0.00 | 64 | 1013.7 |
| 20260905143503 | 87 | 197 | 2.0 | 6.0 | 0.00 | 0.00 | 0.00 | 65 | 1013.6 |
| 20260905143003 | 87 | 220 | 2.0 | 6.0 | 0.00 | 0.00 | 0.00 | 68 | 1013.7 |
| 20260905142503 | 87 | 185 | 2.0 | 5.0 | 0.00 | 0.00 | 0.00 | 68 | 1013.7 |
| 20260905142004 | 86 | 210 | 2.0 | 7.0 | 0.00 | 0.00 | 0.00 | 69 | 1013.6 |
| 20260905141504 | 85 | 184 | 2.0 | 7.0 | 0.00 | 0.00 | 0.00 | 70 | 1013.7 |
| 20260905141003 | 85 | 214 | 2.0 | 7.0 | 0.00 | 0.00 | 0.00 | 70 | 1013.7 |
| 20260905140504 | 85 | 192 | 4.0 | 7.0 | 0.00 | 0.00 | 0.00 | 71 | 1013.7 |
| 20260905140003 | 85 | 228 | 2.0 | 6.0 | 0.00 | 0.00 | 0.00 | 70 | 1013.7 |
| 20260905135525 | 84 | 204 | 3.0 | 6.0 | 0.00 | 0.00 | 0.00 | 71 | 1013.6 |
| 20260905135004 | 84 | 152 | 2.0 | 6.0 | 0.00 | 0.00 | 0.00 | 74 | 1013.7 |
| 20260905134504 | 83 | 156 | 4.0 | 7.0 | 0.00 | 0.00 | 0.00 | 74 | 1013.7 |
| 20260905134004 | 83 | 177 | 5.0 | 7.0 | 0.00 | 0.00 | 0.00 | 75 | 1013.7 |
| 20260905133504 | 82 | 169 | 3.0 | 7.0 | 0.00 | 0.00 | 0.00 | 75 | 1013.8 |
| 20260905133004 | 82 | 203 | 2.0 | 7.0 | 0.00 | 0.00 | 0.00 | 77 | 1013.8 |
| 20260905132504 | 81 | 247 | 2.0 | 5.0 | 0.00 | 0.00 | 0.00 | 76 | 1013.8 |
| 20260905132024 | 81 | 241 | 3.0 | 7.0 | 0.00 | 0.00 | 0.00 | 77 | 1013.9 |
| 20260905131525 | 81 | 213 | 4.0 | 7.0 | 0.00 | 0.00 | 0.00 | 76 | 1014.0 |
| 20260905131004 | 81 | 238 | 2.0 | 5.0 | 0.00 | 0.00 | 0.00 | 77 | 1014.0 |
| 20260905130525 | 80 | 150 | 2.0 | 6.0 | 0.00 | 0.00 | 0.00 | 78 | 1014.0 |
| 20260905130003 | 80 | 186 | 3.0 | 6.0 | 0.00 | 0.00 | 0.00 | 79 | 1014.1 |
| 20260905125503 | 79 | 198 | 2.0 | 7.0 | 0.00 | 0.00 | 0.00 | 81 | 1014.0 |
| 20260905125003 | 78 | 211 | 2.0 | 7.0 | 0.00 | 0.00 | 0.00 | 81 | 1014.0 |
| 20260905124504 | 78 | 223 | 3.0 | 6.0 | 0.00 | 0.00 | 0.00 | 82 | 1014.1 |
| 20260905124003 | 78 | 191 | 2.0 | 6.0 | 0.00 | 0.00 | 0.00 | 83 | 1014.0 |
| 20260905123503 | 77 | 207 | 3.0 | 7.0 | 0.00 | 0.00 | 0.00 | 83 | 1014.0 |
| 20260905123003 | 77 | 211 | 3.0 | 7.0 | 0.00 | 0.00 | 0.00 | 83 | 1014.0 |
| 20260905122504 | 77 | 196 | 3.0 | 7.0 | 0.00 | 0.00 | 0.00 | 84 | 1013.9 |
| 20260905122003 | 77 | 230 | 3.0 | 6.0 | 0.00 | 0.00 | 0.00 | 84 | 1014.0 |
| 20260905121503 | 76 | 200 | 2.0 | 6.0 | 0.00 | 0.00 | 0.00 | 86 | 1013.9 |
| 20260905121003 | 76 | 192 | 2.0 | 6.0 | 0.00 | 0.00 | 0.00 | 86 | 1014.0 |
| 20260905120503 | 76 | 216 | 2.0 | 5.0 | 0.00 | 0.00 | 0.00 | 86 | 1014.0 |
| 20260905120004 | 76 | 231 | 2.0 | 6.0 | 0.00 | 0.00 | 0.00 | 86 | 1014.0 |
| 20260905115504 | 75 | 205 | 3.0 | 6.0 | 0.00 | 0.00 | 0.00 | 87 | 1014.0 |
| 20260905115004 | 75 | 207 | 2.0 | 4.0 | 0.00 | 0.00 | 0.00 | 87 | 1013.9 |
| 20260905114504 | 75 | 207 | 1.0 | 4.0 | 0.00 | 0.00 | 0.00 | 88 | 1013.9 |
| 20260905114004 | 75 | 207 | 2.0 | 4.0 | 0.00 | 0.00 | 0.00 | 88 | 1013.8 |
| 20260905113504 | 74 | 191 | 2.0 | 3.0 | 0.00 | 0.00 | 0.00 | 89 | 1013.7 |
| 20260905113025 | 74 | 172 | 2.0 | 3.0 | 0.00 | 0.00 | 0.00 | 89 | 1013.7 |
| 20260905112503 | 74 | 171 | 1.0 | 2.0 | 0.00 | 0.00 | 0.00 | 89 | 1013.6 |
| 20260905112004 | 74 | 171 | 1.0 | 2.0 | 0.00 | 0.00 | 0.00 | 89 | 1013.6 |
| 20260905111504 | 74 | 171 | 1.0 | 2.0 | 0.00 | 0.00 | 0.00 | 89 | 1013.5 |
| 20260905111024 | 74 | 171 | 0.0 | 2.0 | 0.00 | 0.00 | 0.00 | 89 | 1013.3 |
| 20260905110503 | 74 | 171 | 1.0 | 2.0 | 0.00 | 0.00 | 0.00 | 88 | 1013.1 |
| 20260905110003 | 74 | 171 | 1.0 | 2.0 | 0.00 | 0.00 | 0.00 | 88 | 1013.0 |
| 20260905105503 | 74 | 171 | 1.0 | 2.0 | 0.00 | 0.00 | 0.00 | 88 | 1013.0 |
| 20260905105004 | 74 | 171 | 1.0 | 3.0 | 0.00 | 0.00 | 0.00 | 88 | 1012.9 |
| 20260905104504 | 74 | 171 | 1.0 | 4.0 | 0.00 | 0.00 | 0.00 | 88 | 1012.8 |
| 20260905104004 | 74 | 187 | 2.0 | 4.0 | 0.00 | 0.00 | 0.00 | 88 | 1012.7 |
| 20260905103503 | 74 | 207 | 1.0 | 2.0 | 0.00 | 0.00 | 0.00 | 88 | 1012.7 |
| 20260905103004 | 74 | 207 | 1.0 | 2.0 | 0.00 | 0.00 | 0.00 | 88 | 1012.6 |
| 20260905102503 | 74 | 207 | 0.0 | 2.0 | 0.00 | 0.00 | 0.00 | 88 | 1012.6 |
| 20260905102003 | 74 | 207 | 0.0 | 2.0 | 0.00 | 0.00 | 0.00 | 88 | 1012.7 |
| 20260905101503 | 74 | 0 | 0.0 | 0.0 | 0.00 | 0.00 | 0.00 | 88 | 1012.6 |
| 20260905101003 | 74 | 0 | 0.0 | 2.0 | 0.00 | 0.00 | 0.00 | 88 | 1012.5 |
| 20260905100503 | 74 | 0 | 0.0 | 2.0 | 0.00 | 0.00 | 0.00 | 87 | 1012.4 |
| 20260905100003 | 74 | 207 | 1.0 | 2.0 | 0.00 | 0.00 | 0.00 | 87 | 1012.4 |
| 20260905095504 | 75 | 0 | 0.0 | 2.0 | 0.00 | 0.00 | 0.00 | 86 | 1012.5 |
| 20260905095024 | 75 | 207 | 1.0 | 2.0 | 0.00 | 0.00 | 0.00 | 86 | 1012.5 |
| 20260905094524 | 75 | 207 | 1.0 | 2.0 | 0.00 | 0.00 | 0.00 | 86 | 1012.4 |
| 20260905094003 | 76 | 0 | 0.0 | 1.0 | 0.00 | 0.00 | 0.00 | 84 | 1012.4 |
| 20260905093504 | 76 | 207 | 0.0 | 3.0 | 0.00 | 0.00 | 0.00 | 84 | 1012.3 |
| 20260905093003 | 76 | 207 | 1.0 | 3.0 | 0.00 | 0.00 | 0.00 | 84 | 1012.4 |
| 20260905092524 | 76 | 207 | 1.0 | 4.0 | 0.00 | 0.00 | 0.00 | 84 | 1012.3 |
| 20260905092003 | 76 | 224 | 2.0 | 4.0 | 0.00 | 0.00 | 0.00 | 83 | 1012.3 |
| 20260905091504 | 76 | 251 | 1.0 | 6.0 | 0.00 | 0.00 | 0.00 | 83 | 1012.3 |
| 20260905091003 | 76 | 246 | 2.0 | 6.0 | 0.00 | 0.00 | 0.00 | 83 | 1012.4 |
| 20260905090503 | 76 | 237 | 3.0 | 5.0 | 0.00 | 0.00 | 0.00 | 83 | 1012.4 |
| 20260905090003 | 76 | 220 | 2.0 | 5.0 | 0.00 | 0.00 | 0.00 | 83 | 1012.5 |
| 20260905085524 | 76 | 182 | 2.0 | 3.0 | 0.00 | 0.00 | 0.00 | 84 | 1012.6 |
| 20260905085004 | 76 | 182 | 1.0 | 3.0 | 0.00 | 0.00 | 0.00 | 84 | 1012.6 |
| 20260905084503 | 76 | 182 | 1.0 | 3.0 | 0.00 | 0.00 | 0.00 | 84 | 1012.7 |
| 20260905084003 | 76 | 182 | 1.0 | 3.0 | 0.00 | 0.00 | 0.00 | 84 | 1012.7 |
| 20260905083504 | 76 | 182 | 2.0 | 2.0 | 0.00 | 0.00 | 0.00 | 86 | 1012.8 |
| 20260905083004 | 76 | 182 | 0.0 | 2.0 | 0.00 | 0.00 | 0.00 | 84 | 1012.8 |
| 20260905082504 | 76 | 182 | 0.0 | 2.0 | 0.00 | 0.00 | 0.00 | 84 | 1012.8 |
| 20260905082005 | 76 | 0 | 0.0 | 2.0 | 0.00 | 0.00 | 0.00 | 84 | 1012.9 |
| 20260905081524 | 77 | 182 | 1.0 | 2.0 | 0.00 | 0.00 | 0.00 | 84 | 1013.0 |
| 20260905081004 | 76 | 182 | 1.0 | 3.0 | 0.00 | 0.00 | 0.00 | 86 | 1012.9 |
| 20260905080504 | 76 | 182 | 1.0 | 3.0 | 0.00 | 0.00 | 0.00 | 86 | 1013.0 |
| 20260905080003 | 76 | 182 | 1.0 | 3.0 | 0.00 | 0.00 | 0.00 | 86 | 1013.1 |
| 20260905075504 | 76 | 182 | 1.0 | 3.0 | 0.00 | 0.00 | 0.00 | 86 | 1013.1 |
| 20260905075003 | 76 | 0 | 0.0 | 0.0 | 0.00 | 0.00 | 0.00 | 86 | 1013.3 |
| 20260905074503 | 76 | 0 | 0.0 | 1.0 | 0.00 | 0.00 | 0.00 | 84 | 1013.2 |
| 20260905074004 | 76 | 182 | 1.0 | 1.0 | 0.00 | 0.00 | 0.00 | 84 | 1013.2 |
| 20260905073524 | 76 | 0 | 0.0 | 2.0 | 0.00 | 0.00 | 0.00 | 84 | 1013.2 |
| 20260905073004 | 76 | 182 | 0.0 | 2.0 | 0.00 | 0.00 | 0.00 | 84 | 1013.2 |
| 20260905072505 | 77 | 182 | 1.0 | 2.0 | 0.00 | 0.00 | 0.00 | 84 | 1013.2 |
| 20260905072025 | 77 | 182 | 0.0 | 2.0 | 0.00 | 0.00 | 0.00 | 83 | 1013.2 |
| 20260905071502 | 77 | 182 | 0.0 | 2.0 | 0.00 | 0.00 | 0.00 | 83 | 1013.2 |
| 20260905071002 | 77 | 182 | 2.0 | 2.0 | 0.00 | 0.00 | 0.00 | 83 | 1013.2 |
| 20260905070503 | 77 | 182 | 2.0 | 2.0 | 0.00 | 0.00 | 0.00 | 83 | 1013.4 |
| 20260905070002 | 77 | 0 | 0.0 | 1.0 | 0.00 | 0.00 | 0.00 | 83 | 1013.5 |
| 20260905065503 | 77 | 0 | 0.0 | 2.0 | 0.00 | 0.00 | 0.00 | 83 | 1013.7 |
| 20260905065002 | 77 | 0 | 0.0 | 2.0 | 0.00 | 0.00 | 0.00 | 82 | 1013.6 |
| 20260905064503 | 77 | 182 | 1.0 | 2.0 | 0.00 | 0.00 | 0.00 | 82 | 1013.6 |
| 20260905064023 | 77 | 0 | 0.0 | 0.0 | 0.00 | 0.00 | 0.00 | 82 | 1013.7 |
| 20260905063502 | 78 | 0 | 0.0 | 0.0 | 0.00 | 0.00 | 0.00 | 82 | 1013.7 |
| 20260905063002 | 78 | 0 | 0.0 | 2.0 | 0.00 | 0.00 | 0.00 | 82 | 1013.9 |
| 20260905062503 | 78 | 182 | 1.0 | 2.0 | 0.00 | 0.00 | 0.00 | 81 | 1013.8 |
| 20260905062003 | 78 | 0 | 0.0 | 2.0 | 0.00 | 0.00 | 0.00 | 81 | 1013.9 |
| 20260905061502 | 78 | 182 | 0.0 | 2.0 | 0.00 | 0.00 | 0.00 | 81 | 1013.9 |
| 20260905061002 | 78 | 182 | 1.0 | 2.0 | 0.00 | 0.00 | 0.00 | 81 | 1014.1 |
| 20260905060503 | 78 | 0 | 0.0 | 2.0 | 0.00 | 0.00 | 0.00 | 81 | 1014.2 |
| 20260905060023 | 78 | 0 | 0.0 | 2.0 | 0.00 | 0.00 | 0.00 | 81 | 1014.2 |
| 20260905055502 | 78 | 0 | 0.0 | 0.0 | 0.00 | 0.00 | 0.00 | 81 | 1014.3 |
| 20260905055002 | 78 | 0 | 0.0 | 1.0 | 0.00 | 0.00 | 0.00 | 81 | 1014.3 |
| 20260905054502 | 78 | 0 | 0.0 | 1.0 | 0.00 | 0.00 | 0.00 | 81 | 1014.4 |
| 20260905054003 | 78 | 182 | 0.0 | 1.0 | 0.00 | 0.00 | 0.00 | 79 | 1014.4 |
| 20260905053503 | 78 | 182 | 0.0 | 1.0 | 0.00 | 0.00 | 0.00 | 79 | 1014.4 |
| 20260905053002 | 79 | 182 | 0.0 | 2.0 | 0.00 | 0.00 | 0.00 | 79 | 1014.5 |
| 20260905052502 | 79 | 182 | 0.0 | 2.0 | 0.00 | 0.00 | 0.00 | 79 | 1014.4 |
| 20260905052002 | 79 | 182 | 1.0 | 2.0 | 0.00 | 0.00 | 0.00 | 78 | 1014.4 |
| 20260905051502 | 79 | 182 | 0.0 | 2.0 | 0.00 | 0.00 | 0.00 | 78 | 1014.5 |
| 20260905051002 | 79 | 182 | 0.0 | 2.0 | 0.00 | 0.00 | 0.00 | 78 | 1014.4 |
| 20260905050502 | 79 | 182 | 1.0 | 2.0 | 0.00 | 0.00 | 0.00 | 78 | 1014.5 |
| 20260905050002 | 79 | 0 | 0.0 | 2.0 | 0.00 | 0.00 | 0.00 | 79 | 1014.7 |
| 20260905045502 | 79 | 182 | 0.0 | 2.0 | 0.00 | 0.00 | 0.00 | 78 | 1014.7 |
| 20260905045002 | 79 | 0 | 0.0 | 0.0 | 0.00 | 0.00 | 0.00 | 77 | 1014.7 |
| 20260905044524 | 79 | 0 | 0.0 | 0.0 | 0.00 | 0.00 | 0.00 | 77 | 1014.6 |
| 20260905044002 | 80 | 0 | 0.0 | 1.0 | 0.00 | 0.00 | 0.00 | 77 | 1014.6 |
| 20260905043502 | 80 | 182 | 0.0 | 2.0 | 0.00 | 0.00 | 0.00 | 77 | 1014.7 |
| 20260905043003 | 80 | 0 | 0.0 | 2.0 | 0.00 | 0.00 | 0.00 | 76 | 1014.6 |
| 20260905042502 | 80 | 182 | 0.0 | 2.0 | 0.00 | 0.00 | 0.00 | 76 | 1014.6 |
| 20260905042002 | 80 | 0 | 0.0 | 3.0 | 0.00 | 0.00 | 0.00 | 76 | 1014.6 |
| 20260905041503 | 80 | 182 | 1.0 | 3.0 | 0.00 | 0.00 | 0.00 | 76 | 1014.6 |
| 20260905041002 | 81 | 169 | 0.0 | 1.0 | 0.00 | 0.00 | 0.00 | 76 | 1014.7 |
| 20260905040503 | 81 | 169 | 0.0 | 2.0 | 0.00 | 0.00 | 0.00 | 75 | 1014.7 |
| 20260905040002 | 81 | 169 | 0.0 | 2.0 | 0.00 | 0.00 | 0.00 | 74 | 1014.6 |
| 20260905035503 | 81 | 169 | 1.0 | 5.0 | 0.00 | 0.00 | 0.00 | 74 | 1014.6 |
| 20260905035003 | 81 | 169 | 0.0 | 5.0 | 0.00 | 0.00 | 0.00 | 74 | 1014.4 |
| 20260905034503 | 81 | 147 | 0.0 | 2.0 | 0.00 | 0.00 | 0.00 | 74 | 1014.2 |
| 20260905034002 | 82 | 147 | 0.0 | 3.0 | 0.00 | 0.00 | 0.00 | 72 | 1014.2 |
| 20260905033524 | 82 | 147 | 2.0 | 5.0 | 0.00 | 0.00 | 0.00 | 71 | 1014.2 |
| 20260905033002 | 82 | 224 | 1.0 | 5.0 | 0.00 | 0.00 | 0.00 | 71 | 1014.1 |
| 20260905032502 | 82 | 233 | 1.0 | 4.0 | 0.00 | 0.00 | 0.00 | 71 | 1014.2 |
| 20260905032002 | 82 | 234 | 2.0 | 6.0 | 0.00 | 0.00 | 0.00 | 70 | 1014.2 |
| 20260905031502 | 82 | 267 | 2.0 | 6.0 | 0.00 | 0.00 | 0.00 | 70 | 1014.4 |
| 20260905031003 | 82 | 238 | 2.0 | 5.0 | 0.00 | 0.00 | 0.00 | 70 | 1014.4 |
| 20260905030503 | 82 | 225 | 2.0 | 6.0 | 0.00 | 0.00 | 0.00 | 70 | 1014.6 |
| 20260905030003 | 83 | 227 | 2.0 | 7.0 | 0.00 | 0.00 | 0.00 | 69 | 1014.5 |
| 20260905025503 | 83 | 215 | 1.0 | 7.0 | 0.00 | 0.00 | 0.00 | 69 | 1014.4 |
| 20260905025003 | 83 | 219 | 1.0 | 7.0 | 0.00 | 0.00 | 0.00 | 70 | 1014.5 |
| 20260905024502 | 83 | 187 | 3.0 | 7.0 | 0.00 | 0.00 | 0.00 | 69 | 1014.6 |
| 20260905024003 | 82 | 203 | 2.0 | 5.0 | 0.00 | 0.00 | 0.00 | 70 | 1014.5 |
| 20260905023502 | 82 | 226 | 1.0 | 3.0 | 0.00 | 0.00 | 0.00 | 71 | 1014.5 |
| 20260905023003 | 82 | 183 | 1.0 | 6.0 | 0.00 | 0.00 | 0.00 | 71 | 1014.5 |
| 20260905022523 | 82 | 166 | 2.0 | 6.0 | 0.00 | 0.00 | 0.00 | 71 | 1014.5 |
| 20260905022002 | 82 | 125 | 1.0 | 3.0 | 0.00 | 0.00 | 0.00 | 71 | 1014.5 |
| 20260905021502 | 82 | 220 | 1.0 | 3.0 | 0.00 | 0.00 | 0.00 | 72 | 1014.4 |
| 20260905021002 | 82 | 206 | 1.0 | 3.0 | 0.00 | 0.00 | 0.00 | 72 | 1014.5 |
| 20260905020502 | 82 | 205 | 1.0 | 3.0 | 0.00 | 0.00 | 0.00 | 72 | 1014.5 |
| 20260905020003 | 82 | 205 | 1.0 | 4.0 | 0.00 | 0.00 | 0.00 | 72 | 1014.4 |
| 20260905015502 | 83 | 205 | 1.0 | 4.0 | 0.00 | 0.00 | 0.00 | 71 | 1014.4 |
| 20260905015002 | 83 | 203 | 1.0 | 3.0 | 0.00 | 0.00 | 0.00 | 71 | 1014.4 |
| 20260905014523 | 83 | 203 | 0.0 | 2.0 | 0.00 | 0.00 | 0.00 | 70 | 1014.5 |
| 20260905014002 | 83 | 203 | 1.0 | 2.0 | 0.00 | 0.00 | 0.00 | 71 | 1014.4 |
| 20260905013504 | 83 | 203 | 0.0 | 2.0 | 0.00 | 0.00 | 0.00 | 70 | 1014.5 |
| 20260905013025 | 83 | 203 | 1.0 | 4.0 | 0.00 | 0.00 | 0.00 | 70 | 1014.4 |
| 20260905012502 | 84 | 203 | 1.0 | 4.0 | 0.00 | 0.00 | 0.00 | 70 | 1014.3 |
| 20260905012002 | 84 | 203 | 1.0 | 5.0 | 0.00 | 0.00 | 0.00 | 69 | 1014.2 |
| 20260905011502 | 84 | 210 | 1.0 | 5.0 | 0.00 | 0.00 | 0.00 | 69 | 1014.2 |
| 20260905011004 | 84 | 229 | 1.0 | 5.0 | 0.00 | 0.00 | 0.00 | 69 | 1014.1 |
| 20260905010502 | 84 | 229 | 0.0 | 5.0 | 0.00 | 0.00 | 0.00 | 69 | 1014.0 |
| 20260905010002 | 84 | 214 | 1.0 | 4.0 | 0.00 | 0.00 | 0.00 | 69 | 1014.1 |
| 20260905005502 | 84 | 214 | 2.0 | 4.0 | 0.00 | 0.00 | 0.00 | 68 | 1014.2 |
| 20260905005002 | 84 | 214 | 0.0 | 2.0 | 0.00 | 0.00 | 0.00 | 68 | 1014.2 |
| 20260905004502 | 84 | 183 | 1.0 | 2.0 | 0.00 | 0.00 | 0.00 | 68 | 1014.2 |
| 20260905004003 | 84 | 183 | 0.0 | 3.0 | 0.00 | 0.00 | 0.00 | 68 | 1014.3 |
| 20260905003523 | 84 | 183 | 1.0 | 3.0 | 0.00 | 0.00 | 0.00 | 68 | 1014.2 |
| 20260905003003 | 85 | 183 | 1.0 | 2.0 | 0.00 | 0.00 | 0.00 | 67 | 1014.3 |
| 20260905002502 | 85 | 0 | 0.0 | 2.0 | 0.00 | 0.00 | 0.00 | 67 | 1014.4 |
| 20260905002002 | 85 | 183 | 1.0 | 2.0 | 0.00 | 0.00 | 0.00 | 65 | 1014.3 |
| 20260905001503 | 85 | 183 | 0.0 | 2.0 | 0.00 | 0.00 | 0.00 | 64 | 1014.2 |
| 20260905001004 | 85 | 183 | 1.0 | 2.0 | 0.00 | 0.00 | 0.00 | 64 | 1014.3 |
| 20260905000504 | 86 | 183 | 0.0 | 2.0 | 0.00 | 0.00 | 0.00 | 64 | 1014.2 |
| 20260905000002 | 86 | 0 | 0.0 | 2.0 | 0.00 | 0.00 | 0.00 | 64 | 1014.2 |
| 20260904235503 | 86 | 183 | 0.0 | 2.0 | 0.00 | 0.00 | 0.00 | 63 | 1014.1 |
| 20260904235002 | 87 | 183 | 0.0 | 2.0 | 0.00 | 0.00 | 0.00 | 61 | 1014.0 |
| 20260904234503 | 87 | 183 | 1.0 | 2.0 | 0.00 | 0.00 | 0.00 | 61 | 1013.9 |
| 20260904234003 | 87 | 183 | 1.0 | 3.0 | 0.00 | 0.00 | 0.00 | 60 | 1013.9 |
| 20260904233502 | 88 | 183 | 1.0 | 3.0 | 0.00 | 0.00 | 0.00 | 59 | 1013.8 |
| 20260904233003 | 88 | 0 | 0.0 | 3.0 | 0.00 | 0.00 | 0.00 | 59 | 1013.8 |
| 20260904232502 | 88 | 183 | 0.0 | 3.0 | 0.00 | 0.00 | 0.00 | 58 | 1013.8 |
| 20260904232002 | 89 | 178 | 2.0 | 6.0 | 0.00 | 0.00 | 0.00 | 58 | 1013.8 |
| 20260904231523 | 89 | 146 | 1.0 | 6.0 | 0.00 | 0.00 | 0.00 | 57 | 1013.8 |
| 20260904231024 | 90 | 185 | 0.0 | 4.0 | 0.00 | 0.00 | 0.00 | 57 | 1013.7 |
| 20260904230524 | 90 | 146 | 2.0 | 2.0 | 0.00 | 0.00 | 0.00 | 57 | 1013.6 |
| 20260904230023 | 90 | 146 | 1.0 | 4.0 | 0.00 | 0.00 | 0.00 | 55 | 1013.7 |
| 20260904225502 | 91 | 146 | 1.0 | 6.0 | 0.00 | 0.00 | 0.00 | 53 | 1013.6 |
| 20260904225024 | 92 | 144 | 1.0 | 7.0 | 0.00 | 0.00 | 0.00 | 52 | 1013.6 |
| 20260904224503 | 92 | 176 | 3.0 | 8.0 | 0.00 | 0.00 | 0.00 | 50 | 1013.6 |
| 20260904224002 | 92 | 169 | 4.0 | 8.0 | 0.00 | 0.00 | 0.00 | 49 | 1013.5 |
| 20260904223504 | 93 | 139 | 2.0 | 7.0 | 0.00 | 0.00 | 0.00 | 49 | 1013.7 |